Regional Weather Roundup
Issued by NWS

Home | Current Version | Previous Version | Text Only | Print | Product List | Glossary Off
Versions: 1 2 3 4 5 6 7 8 9 10 11 12 13 14 15 16 17 18 19 20 21 22 23 24 25 26 27 28 29 30 31 32 33 34 35 36 37 38 39 40 41 42 43 44 45 46 47 48 49 50

000
ASUS43 KMPX 191201
RWRMN
WEATHER ROUNDUP FOR MINNESOTA
NATIONAL WEATHER SERVICE TWIN CITIES/CHANHASSEN MN
600 AM CST THU JAN 19 2017


NOTE: "FAIR" INDICATES FEW OR NO CLOUDS BELOW 12,000 FEET WITH NO
SIGNIFICANT WEATHER AND/OR OBSTRUCTIONS TO VISIBILITY. N/A MEANS
CURRENT SKY AND/OR WEATHER CONDITIONS ARE NOT AVAILABLE.

MNZ060>063-068>070-191300-
   Twin Cities Metro

CITY           SKY/WX    TMP DP  RH WIND       PRES   REMARKS
TWIN CITIES    CLEAR     32  29  88 VRB5      29.82R WCI  27
6HR MIN TEMP:  29; 6HR MAX TEMP:  34;

ST PAUL        CLEAR     29  29 100 SE3       29.84R
CRYSTAL        CLEAR     31  28  89 S6        29.80R WCI  25
BLAINE         CLEAR     34  34 100 S8        29.80S FOG     WCI  27
LAKEVILLE      CLEAR     32  32 100 S7        29.82S WCI  26
EDEN PRAIRIE   CLEAR     36  31  82 S12       29.80R
6HR MIN TEMP:  33; 6HR MAX TEMP:  37;

SOUTH ST PAUL    N/A     26  26  98 CALM      29.83S FOG
LAKE ELMO      FAIR      32  30  93 S5        29.84R WCI  27
$$
MNZ001>005-007-008-013>017-022>024-027-028-191300-
   Northwest Minnesota

CITY           SKY/WX    TMP DP  RH WIND       PRES   REMARKS
BEMIDJI        FOG       28  28  99 S3        29.67R VSB 3/4
HALLOCK        CLOUDY    25  21  86 S17       29.55F WCI  11
ROSEAU         CLOUDY    30  25  80 S13       29.61R WCI  20
WARROAD        CLOUDY    30  25  80 S7        29.61S WCI  23
THIEF RVR FALL CLOUDY    24  20  84 S9        29.63F WCI  14
CROOKSTON      CLOUDY    27  25  93 S16       29.63R FOG     WCI  14
FOSSTON        CLOUDY    23  21  93 S7        29.65S WCI  15
DETROIT LAKES  SNOW      32  32 100 S9        29.67R VSB 1/4 WCI  24
MOORHEAD       FOG       27  27 100 S14       29.66S VSB 1/2 WCI  15
PARK RAPIDS    FOG       29  27  92 SE9       29.67S VSB 1/4 WCI  20
MAHNOMEN       CLOUDY    27  26  97 SE8       29.65F FOG     WCI  18
$$
MNZ006-009>011-018-025>026-191300-
   North Central Minnesota

CITY           SKY/WX    TMP DP  RH WIND       PRES   REMARKS
BAUDETTE       CLOUDY    25  20  81 SE7       29.62F WCI  17
FLAG ISLAND    CLOUDY    19  18  93 S9        29.61R WCI   9
INTL FALLS     CLOUDY    22  19  89 SE6       29.67S WCI  14
6HR MIN TEMP:  20; 6HR MAX TEMP:  28;

WASKISH        CLOUDY    27  23  86 S3        29.67S
LONGVILLE      FOG       32  30  93 S7        29.70R VSB 1/2 WCI  26
GRAND RAPIDS   SNOW      31  31 100 S10       29.72S VSB 1/4 WCI  22
CRANE LAKE     CLOUDY    12  12 100 CALM      29.73S
ORR            CLOUDY    27  25  93 S7        29.69R FOG     WCI  19
COOK           CLOUDY    28  27  93 S3        29.72R FOG
WALKER         FOG       30  29  99 S7        29.68S VSB 1/2 WCI  23
$$
MNZ012-019>021-037-191300-
   Northeast Minnesota

CITY           SKY/WX    TMP DP  RH WIND       PRES   REMARKS
DULUTH         FOG       33  33 100 S9        29.76R VSB 1/4 WCI  25
6HR MIN TEMP:  31; 6HR MAX TEMP:  33;

ELY            CLOUDY    25  25 100 S6        29.73R FOG     WCI  18
HIBBING        FOG       30  30 100 S5        29.72S VSB 1/4 WCI  25
EVELETH        FOG       26  25  96 CALM      29.74S VSB 1/4
DULUTH HARBOR  CLOUDY    36  34  93 CALM      29.81R
TWO HARBORS    HAZE      34  28  80 CALM      29.77R VSB 1/2
SILVER BAY     CLOUDY    28  28 100 CALM      29.77S VSB 1/4
G MARAIS ARPRT FOG       27  25  93 S5        29.76R VSB<1/4 WCI  21
$$
MNZ029>031-032-039>041-046>048-054>057-064-191300-
   West Central Minnesota

CITY           SKY/WX    TMP DP  RH WIND       PRES   REMARKS
FERGUS FALLS   FOG       28  28 100 S9        29.72R VSB 1   WCI  20
WHEATON        CLOUDY    27  27 100 SE8       29.69R WCI  18
MORRIS         CLOUDY    28  27  93 SE9       29.68S FOG     WCI  20
ALEXANDRIA     FOG       32  31  96 SE8       29.70S VSB 3/4 WCI  25
ELBOW LAKE     SNOW      29  29 100 E12       29.68S VSB 1/4 WCI  20
WADENA         MIX PCPN  28  28 100 SE6       29.69R VSB 1/4 WCI  22
GLENWOOD       FOG       28  28 100 S10       29.71S VSB 1/4 WCI  19
APPLETON       CLOUDY    28  28 100 SE6       29.70S FOG     WCI  22
ORTONVILLE     CLOUDY    25  23  93 CALM      29.67S FOG
MADISON        CLOUDY    30  30 100 SE9       29.69S WCI  22
WILLMAR        FAIR      27  27 100 SE7       29.75S WCI  19
$$
MNZ033>034-036-042>043-049>051-058-059-191300-
   Central Minnesota

CITY           SKY/WX    TMP DP  RH WIND       PRES   REMARKS
ST CLOUD       FOG       25  25 100 SE7       29.77R VSB 1   WCI  17
6HR MIN TEMP:  23; 6HR MAX TEMP:  31;

SAUK CENTRE    FOG       28  28 100 SE6       29.73S VSB 1/2 WCI  22
PAYNESVILLE    CLOUDY    29  29 100 SE7       29.75S FOG     WCI  22
AITKIN         FOG       36  30  80 S7        29.73R VSB 1/2
PINE RIVER     MIX PCPN  30  30 100 S8        29.75R VSB 1/4 WCI  23
BRAINERD       FOG       32  32 100 S9        29.73S VSB 1/4 WCI  24
STAPLES        MIX PCPN  30  30 100 S6        29.71R VSB 1/4 WCI  24
LONG PRAIRIE   SNOW      32  32 100 SE7       29.72R VSB 1/2 WCI  26
LITTLE FALLS   FOG       32  32 100 S8        29.74S VSB 3/4 WCI  25
LITCHFIELD     CLOUDY    34  32  93 SE5       29.77R WCI  30
BUFFALO        CLEAR     33  31  94 S6        29.80R WCI  27
MAPLE LAKE     CLOUDY    33  33 100 S5        29.79R WCI  28
HUTCHINSON     CLOUDY    30  30  99 SE3       29.79S
$$
MNZ037-044-045-052-053-191300-
   East Central Minnesota

CITY           SKY/WX    TMP DP  RH WIND       PRES   REMARKS
PRINCETON      FOG       25  25 100 CALM      29.78S VSB<1/4
MORA           FOG       30  28  93 CALM      29.81R VSB 1/2
CAMBRIDGE      CLOUDY    34  28  80 SE3       29.78S HAZE
RUSH CITY      CLOUDY    28  28 100 S6        29.81R FOG     WCI  22
MOOSE LAKE     CLOUDY    32  32 100 S9        29.76S FOG     WCI  24
HINCKLEY       CLOUDY    32  32 100 S3        29.80S FOG
CLOQUET        FOG       34  32  93 S7        29.77R VSB 1/4 WCI  28
MCGREGOR       CLOUDY    34  32  93 S9        29.75S VSB 1/2 WCI  26
$$
MNZ071>073-080-081-089-090-097-098-191300-
   Southwest Minnesota

CITY           SKY/WX    TMP DP  RH WIND       PRES   REMARKS
MONTEVIDEO     CLOUDY    32  32 100 S9        29.73S WCI  24
GRANITE FALLS  CLEAR     35  32  91 SE9       29.74S WCI  27
CANBY          CLEAR     41  36  82 SW12G17   29.69F
MARSHALL       CLEAR     38  33  82 S14       29.72R
REDWOOD FALLS  CLEAR     33  29  85 S10       29.76R WCI  25
OLIVIA         CLEAR     32  30  93 S10       29.75R WCI  24
PIPESTONE      CLEAR     34  32  93 S10       29.73R WCI  26
WINDOM           N/A     36  34  93 S8        29.77S
WORTHINGTON    CLEAR     35  32  88 S12       29.77R WCI  27
JACKSON        CLEAR     32  32 100 S8        29.79R WCI  25
TRACY          CLEAR     39  34  84 S17G25    29.73R
SLAYTON        CLEAR     35  32  92 S14       29.75R WCI  25
$$
MNZ065>067-074>077-082>085-091>093-191300-
   South Central Minnesota

CITY           SKY/WX    TMP DP  RH WIND       PRES   REMARKS
MANKATO        CLEAR     33  31  92 S9        29.82R WCI  25
NEW ULM        CLEAR     34  30  86 S12       29.79R WCI  25
ST JAMES       CLEAR     34  34 100 S10       29.81R WCI  26
FAIRMONT       CLOUDY    33  32  96 S14       29.81S FOG     WCI  23
GLENCOE        CLEAR     35  34  96 S7        29.79R WCI  29
FARIBAULT      CLEAR     32  30  93 S8        29.84R WCI  25
OWATONNA       CLEAR     32  28  86 S16       29.84R FOG     WCI  21
WASECA         CLEAR     34  32  93 S8        29.85S WCI  27
ALBERT LEA     PTCLDY    32  30  93 S7        29.83F FOG     WCI  26
$$
MNZ078>079-086>088-094>096-191300-
   Southeast Minnesota

CITY           SKY/WX    TMP DP  RH WIND       PRES   REMARKS
ROCHESTER      FOG       30  30 100 S8        29.86S VSB 1/2 WCI  22
6HR MIN TEMP:  29; 6HR MAX TEMP:  32;

RED WING       CLEAR     32  28  86 SE5       29.86R FOG     WCI  27
STANTON        CLEAR     35  31  87 S9        29.82S WCI  27
DODGE CENTER   FOG       30  30 100 S12       29.86R VSB 1/2 WCI  21
WINONA         CLEAR     32  32 100 CALM      29.91S
AUSTIN         FOG       30  30 100 S8        29.85F VSB 1/2 WCI  23
PRESTON        FOG       30  29  96 S8        29.88S VSB 1/4 WCI  22
$$
ABBREVIATIONS USED IN REMARKS
   TC - TEMPERATURES IN CELSIUS
  WCI - WIND CHILL INDEX
   HX - HEAT INDEX
  VSB - VISIBILITY
$$



USA.gov is the U.S. government's official web portal to all federal, state and local government web resources and services.